Location: Rokycany
(49.7330°N, 13.6000°E)
Time: 22:24:05
(UTC+02:00)

ISS - Pass Details

Date: 29 March 2019
Orbit: 408 x 410 km, 51.6° (Epoch: 21 April)

Event Time Altitude Azimuth Distance (km) Brightness Sun altitude
Rises 20:04:28 0° 276° (W) 2,337 1.5 -15.2°
Reaches altitude 10° 20:06:35 10° 280° (W) 1,475 0.3 -15.5°
Maximum altitude 20:09:51 59° 1° (N) 476 -3.4 -15.9°
Enters shadow 20:11:10 32° 69° (ENE) 736 -2.9 -16.1°
